Location: Cueva de Ratón
(10.1013°N, 67.6606°W)
Time: 00:05:54
(UTC+00:00)

ADEOS - Pass Details

Date: 02 December 2023
Orbit: 791 x 793 km, 98.9° (Epoch: 04 March)

Event Time Altitude Azimuth Distance (km) Brightness Sun altitude
Rises 22:42:59 0° 145° (SE) 3,278 6.6 -9.0°
Reaches altitude 10° 22:45:35 10° 133° (SE) 2,349 5.8 -9.6°
Maximum altitude 22:49:59 28° 75° (ENE) 1,432 4.3 -10.6°
Drops below altitude 10° 22:54:23 10° 17° (NNE) 2,349 5.7 -11.6°
Sets 22:56:58 0° 6° (N) 3,278 6.5 -12.2°
